Time,TemperatureF,DewpointF,PressureIn,WindDirection,WindDirectionDegrees,WindSpeedMPH,WindSpeedGustMPH,Humidity,HourlyPrecipIn,Conditions,Clouds,dailyrainin,SoftwareType,DateUTC
2013-06-30 00:03:00,62.0,59.0,29.74,North,351,0.0,3.0,89,0.00,,,0.50,weatherlink.com 1.10,2013-06-30 05:03:00,
2013-06-30 00:18:00,62.4,59.0,29.75,North,11,0.0,4.0,89,0.00,,,0.00,weatherlink.com 1.10,2013-06-30 05:18:00,
2013-06-30 00:33:00,62.6,59.0,29.75,NNE,28,0.0,5.0,88,0.00,,,0.00,weatherlink.com 1.10,2013-06-30 05:33:00,
2013-06-30 00:48:00,62.8,59.0,29.75,North,355,0.0,4.0,88,0.00,,,0.00,weatherlink.com 1.10,2013-06-30 05:48:00,
2013-06-30 01:03:00,62.9,59.0,29.75,NE,43,0.0,2.0,88,0.00,,,0.00,weatherlink.com 1.10,2013-06-30 06:03:00,
2013-06-30 01:18:00,62.6,59.0,29.75,North,5,0.0,2.0,89,0.00,,,0.00,weatherlink.com 1.10,2013-06-30 06:18:00,
2013-06-30 01:33:00,62.4,60.0,29.75,North,5,0.0,1.0,90,0.00,,,0.00,weatherlink.com 1.10,2013-06-30 06:33:00,
2013-06-30 01:48:00,62.2,60.0,29.76,NNW,344,0.0,3.0,91,0.00,,,0.00,weatherlink.com 1.10,2013-06-30 06:48:00,
2013-06-30 02:03:00,62.1,60.0,29.76,North,5,0.0,4.0,91,0.00,,,0.00,weatherlink.com 1.10,2013-06-30 07:03:00,
2013-06-30 02:18:00,62.0,60.0,29.76,North,5,0.0,1.0,92,0.00,,,0.00,weatherlink.com 1.10,2013-06-30 07:18:00,
2013-06-30 02:33:00,62.0,60.0,29.75,NNW,338,0.0,3.0,92,0.00,,,0.00,weatherlink.com 1.10,2013-06-30 07:33:00,
2013-06-30 02:48:00,62.4,59.0,29.76,NNW,346,0.0,7.0,89,0.00,,,0.00,weatherlink.com 1.10,2013-06-30 07:48:00,
2013-06-30 03:03:00,62.4,58.0,29.76,NNW,344,0.0,9.0,86,0.00,,,0.00,weatherlink.com 1.10,2013-06-30 08:03:00,
2013-06-30 03:18:00,62.4,58.0,29.77,North,9,0.0,6.0,85,0.00,,,0.00,weatherlink.com 1.10,2013-06-30 08:18:00,
2013-06-30 03:33:00,62.5,58.0,29.77,North,5,1.0,3.0,86,0.00,,,0.00,weatherlink.com 1.10,2013-06-30 08:33:00,
2013-06-30 03:49:00,62.4,58.0,29.77,North,9,0.0,5.0,86,0.00,,,0.00,weatherlink.com 1.10,2013-06-30 08:49:00,
2013-06-30 04:04:00,62.3,58.0,29.77,NNW,344,2.0,4.0,86,0.00,,,0.00,weatherlink.com 1.10,2013-06-30 09:04:00,
2013-06-30 04:19:00,61.8,58.0,29.78,North,5,0.0,5.0,86,0.00,,,0.00,weatherlink.com 1.10,2013-06-30 09:19:00,
2013-06-30 04:34:00,61.4,58.0,29.78,NNE,17,4.0,5.0,87,0.00,,,0.00,weatherlink.com 1.10,2013-06-30 09:34:00,
2013-06-30 04:49:00,61.4,57.0,29.78,NNW,344,1.0,4.0,86,0.00,,,0.00,weatherlink.com 1.10,2013-06-30 09:49:00,
2013-06-30 05:04:00,61.7,57.0,29.79,North,11,3.0,5.0,84,0.00,,,0.00,weatherlink.com 1.10,2013-06-30 10:04:00,
2013-06-30 05:19:00,61.7,58.0,29.79,NNE,26,0.0,4.0,86,0.00,,,0.00,weatherlink.com 1.10,2013-06-30 10:19:00,
2013-06-30 05:34:00,61.7,58.0,29.80,NNE,22,0.0,6.0,86,0.00,,,0.00,weatherlink.com 1.10,2013-06-30 10:34:00,
2013-06-30 05:49:00,61.6,57.0,29.80,NNW,346,0.0,8.0,86,0.00,,,0.00,weatherlink.com 1.10,2013-06-30 10:49:00,
2013-06-30 06:04:00,61.7,57.0,29.81,North,360,3.0,5.0,85,0.00,,,0.00,weatherlink.com 1.10,2013-06-30 11:04:00,
2013-06-30 06:19:00,61.6,57.0,29.82,North,5,0.0,7.0,84,0.00,,,0.00,weatherlink.com 1.10,2013-06-30 11:19:00,
2013-06-30 06:34:00,61.4,57.0,29.82,North,5,0.0,6.0,84,0.00,,,0.00,weatherlink.com 1.10,2013-06-30 11:34:00,
2013-06-30 06:49:00,61.3,57.0,29.83,NE,34,0.0,4.0,84,0.00,,,0.00,weatherlink.com 1.10,2013-06-30 11:49:00,
2013-06-30 07:04:00,61.2,55.0,29.83,North,355,0.0,8.0,81,0.00,,,0.00,weatherlink.com 1.10,2013-06-30 12:04:00,
2013-06-30 07:19:00,61.0,55.0,29.83,NNW,340,0.0,11.0,80,0.00,,,0.00,weatherlink.com 1.10,2013-06-30 12:19:00,
2013-06-30 07:34:00,61.1,55.0,29.84,North,9,1.0,6.0,80,0.00,,,0.00,weatherlink.com 1.10,2013-06-30 12:34:00,
2013-06-30 07:49:00,62.0,55.0,29.84,North,5,5.0,7.0,78,0.00,,,0.00,weatherlink.com 1.10,2013-06-30 12:49:00,
2013-06-30 08:04:00,62.8,55.0,29.84,NNW,331,0.0,9.0,76,0.00,,,0.00,weatherlink.com 1.10,2013-06-30 13:04:00,
2013-06-30 08:19:00,63.4,55.0,29.84,NNE,16,1.0,7.0,75,0.00,,,0.00,weatherlink.com 1.10,2013-06-30 13:19:00,
2013-06-30 08:34:00,64.2,57.0,29.85,ENE,65,0.0,9.0,77,0.00,,,0.00,weatherlink.com 1.10,2013-06-30 13:34:00,
2013-06-30 08:49:00,65.0,55.0,29.86,ENE,68,3.0,9.0,71,0.00,,,0.00,weatherlink.com 1.10,2013-06-30 13:49:00,
2013-06-30 09:04:00,64.8,56.0,29.86,North,351,2.0,8.0,72,0.00,,,0.00,weatherlink.com 1.10,2013-06-30 14:04:00,
2013-06-30 09:19:00,65.4,55.0,29.86,NNW,340,6.0,10.0,70,0.00,,,0.00,weatherlink.com 1.10,2013-06-30 14:19:00,
2013-06-30 09:34:00,66.1,56.0,29.86,East,90,5.0,13.0,70,0.00,,,0.00,weatherlink.com 1.10,2013-06-30 14:34:00,
2013-06-30 09:49:00,66.6,56.0,29.86,NNE,19,2.0,9.0,68,0.00,,,0.00,weatherlink.com 1.10,2013-06-30 14:49:00,
2013-06-30 10:04:00,67.4,57.0,29.87,NE,36,0.0,6.0,70,0.00,,,0.00,weatherlink.com 1.10,2013-06-30 15:04:00,
2013-06-30 10:19:00,67.7,58.0,29.86,NNE,14,0.0,6.0,71,0.00,,,0.00,weatherlink.com 1.10,2013-06-30 15:19:00,
2013-06-30 10:34:00,68.7,59.0,29.87,North,351,3.0,7.0,70,0.00,,,0.00,weatherlink.com 1.10,2013-06-30 15:34:00,
2013-06-30 10:49:00,69.0,58.0,29.88,NNW,338,1.0,10.0,67,0.00,,,0.00,weatherlink.com 1.10,2013-06-30 15:49:00,
2013-06-30 11:04:00,69.7,58.0,29.87,NNW,341,2.0,8.0,67,0.00,,,0.00,weatherlink.com 1.10,2013-06-30 16:04:00,
2013-06-30 11:19:00,70.2,58.0,29.87,NNE,14,1.0,7.0,66,0.00,,,0.00,weatherlink.com 1.10,2013-06-30 16:19:00,
2013-06-30 11:35:00,70.9,59.0,29.87,North,11,0.0,6.0,66,0.00,,,0.00,weatherlink.com 1.10,2013-06-30 16:35:00,
2013-06-30 11:50:00,71.3,60.0,29.87,North,9,0.0,4.0,67,0.00,,,0.00,weatherlink.com 1.10,2013-06-30 16:50:00,
2013-06-30 12:05:00,72.0,60.0,29.88,NNE,16,2.0,6.0,65,0.00,,,0.00,weatherlink.com 1.10,2013-06-30 17:05:00,
2013-06-30 12:20:00,72.3,60.0,29.87,NNW,338,0.0,9.0,66,0.00,,,0.00,weatherlink.com 1.10,2013-06-30 17:20:00,
2013-06-30 12:35:00,73.0,61.0,29.87,NW,326,0.0,6.0,67,0.00,,,0.00,weatherlink.com 1.10,2013-06-30 17:35:00,
2013-06-30 12:50:00,74.0,61.0,29.87,NNW,337,0.0,4.0,63,0.00,,,0.00,weatherlink.com 1.10,2013-06-30 17:50:00,
2013-06-30 13:05:00,74.0,60.0,29.88,North,360,4.0,8.0,61,0.00,,,0.00,weatherlink.com 1.10,2013-06-30 18:05:00,
2013-06-30 13:20:00,74.8,62.0,29.87,NE,42,1.0,9.0,64,0.00,,,0.00,weatherlink.com 1.10,2013-06-30 18:20:00,
2013-06-30 13:35:00,75.1,60.0,29.87,NNE,19,5.0,8.0,60,0.00,,,0.00,weatherlink.com 1.10,2013-06-30 18:35:00,
2013-06-30 13:50:00,75.6,61.0,29.87,NE,34,7.0,7.0,60,0.00,,,0.00,weatherlink.com 1.10,2013-06-30 18:50:00,
2013-06-30 14:05:00,75.6,60.0,29.87,NNE,31,5.0,8.0,58,0.00,,,0.00,weatherlink.com 1.10,2013-06-30 19:05:00,
2013-06-30 14:20:00,75.7,59.0,29.87,NNE,26,5.0,9.0,57,0.00,,,0.00,weatherlink.com 1.10,2013-06-30 19:20:00,
2013-06-30 14:35:00,75.8,60.0,29.87,North,5,5.0,12.0,58,0.00,,,0.00,weatherlink.com 1.10,2013-06-30 19:35:00,
2013-06-30 14:50:00,76.0,61.0,29.87,NNE,30,5.0,11.0,59,0.00,,,0.00,weatherlink.com 1.10,2013-06-30 19:50:00,
2013-06-30 15:05:00,75.9,59.0,29.87,North,355,3.0,8.0,56,0.00,,,0.00,weatherlink.com 1.10,2013-06-30 20:05:00,
2013-06-30 15:20:00,75.8,59.0,29.87,North,5,5.0,5.0,56,0.00,,,0.00,weatherlink.com 1.10,2013-06-30 20:20:00,
2013-06-30 15:35:00,76.4,60.0,29.87,NNE,28,2.0,6.0,57,0.00,,,0.00,weatherlink.com 1.10,2013-06-30 20:35:00,
2013-06-30 15:50:00,76.6,60.0,29.88,SE,132,3.0,10.0,56,0.00,,,0.00,weatherlink.com 1.10,2013-06-30 20:50:00,
2013-06-30 16:05:00,76.4,58.0,29.88,NNE,17,3.0,10.0,54,0.00,,,0.00,weatherlink.com 1.10,2013-06-30 21:05:00,
2013-06-30 16:20:00,76.1,59.0,29.88,NW,312,2.0,12.0,55,0.00,,,0.00,weatherlink.com 1.10,2013-06-30 21:20:00,
2013-06-30 16:35:00,76.2,58.0,29.88,North,355,3.0,8.0,54,0.00,,,0.00,weatherlink.com 1.10,2013-06-30 21:35:00,
2013-06-30 16:50:00,76.0,58.0,29.88,NW,325,2.0,10.0,54,0.00,,,0.00,weatherlink.com 1.10,2013-06-30 21:50:00,
2013-06-30 17:05:00,76.1,56.0,29.88,NNE,24,3.0,9.0,50,0.00,,,0.00,weatherlink.com 1.10,2013-06-30 22:05:00,
2013-06-30 17:20:00,75.8,56.0,29.88,NE,38,1.0,11.0,51,0.00,,,0.00,weatherlink.com 1.10,2013-06-30 22:20:00,
2013-06-30 17:35:00,75.4,55.0,29.88,ENE,66,3.0,10.0,50,0.00,,,0.00,weatherlink.com 1.10,2013-06-30 22:35:00,
2013-06-30 17:50:00,75.2,55.0,29.88,NNE,17,1.0,10.0,50,0.00,,,0.00,weatherlink.com 1.10,2013-06-30 22:50:00,
2013-06-30 18:05:00,74.2,56.0,29.89,North,360,2.0,11.0,54,0.00,,,0.00,weatherlink.com 1.10,2013-06-30 23:05:00,
2013-06-30 18:20:00,74.1,56.0,29.89,NNE,24,1.0,8.0,54,0.00,,,0.00,weatherlink.com 1.10,2013-06-30 23:20:00,
2013-06-30 18:35:00,73.8,56.0,29.90,North,5,1.0,7.0,54,0.00,,,0.00,weatherlink.com 1.10,2013-06-30 23:35:00,
2013-06-30 18:50:00,73.2,56.0,29.90,North,9,0.0,9.0,56,0.00,,,0.00,weatherlink.com 1.10,2013-06-30 23:50:00,
2013-06-30 19:05:00,72.6,56.0,29.91,NNW,342,4.0,9.0,56,0.00,,,0.00,weatherlink.com 1.10,2013-07-01 00:05:00,
2013-06-30 19:20:00,72.1,56.0,29.91,North,5,0.0,7.0,57,0.00,,,0.00,weatherlink.com 1.10,2013-07-01 00:20:00,
2013-06-30 19:35:00,71.3,56.0,29.91,North,5,0.0,4.0,58,0.00,,,0.00,weatherlink.com 1.10,2013-07-01 00:35:00,
2013-06-30 19:50:00,70.4,56.0,29.91,NNE,30,0.0,3.0,61,0.00,,,0.00,weatherlink.com 1.10,2013-07-01 00:50:00,
2013-06-30 20:05:00,69.4,56.0,29.91,NNE,32,0.0,3.0,63,0.00,,,0.00,weatherlink.com 1.10,2013-07-01 01:05:00,
2013-06-30 20:20:00,68.3,57.0,29.91,North,5,0.0,1.0,68,0.00,,,0.00,weatherlink.com 1.10,2013-07-01 01:20:00,
2013-06-30 20:35:00,67.0,57.0,29.92,North,355,0.0,2.0,70,0.00,,,0.00,weatherlink.com 1.10,2013-07-01 01:35:00,
2013-06-30 20:50:00,65.9,57.0,29.93,North,355,0.0,0.0,72,0.00,,,0.00,weatherlink.com 1.10,2013-07-01 01:50:00,
2013-06-30 21:05:00,64.7,57.0,29.93,North,355,0.0,0.0,75,0.00,,,0.00,weatherlink.com 1.10,2013-07-01 02:05:00,
2013-06-30 21:20:00,63.7,56.0,29.93,North,355,0.0,1.0,76,0.00,,,0.00,weatherlink.com 1.10,2013-07-01 02:20:00,
2013-06-30 21:35:00,62.8,56.0,29.94,North,355,0.0,0.0,78,0.00,,,0.00,weatherlink.com 1.10,2013-07-01 02:35:00,
2013-06-30 21:50:00,62.2,56.0,29.94,North,355,0.0,0.0,79,0.00,,,0.00,weatherlink.com 1.10,2013-07-01 02:50:00,
2013-06-30 22:05:00,61.5,55.0,29.95,North,355,0.0,0.0,78,0.00,,,0.00,weatherlink.com 1.10,2013-07-01 03:05:00,
2013-06-30 22:20:00,61.1,55.0,29.95,North,355,0.0,1.0,79,0.00,,,0.00,weatherlink.com 1.10,2013-07-01 03:20:00,
2013-06-30 22:35:00,60.8,55.0,29.95,North,355,0.0,2.0,81,0.00,,,0.00,weatherlink.com 1.10,2013-07-01 03:35:00,
2013-06-30 22:50:00,60.3,55.0,29.95,North,355,0.0,0.0,82,0.00,,,0.00,weatherlink.com 1.10,2013-07-01 03:50:00,
2013-06-30 23:06:00,59.7,54.0,29.95,NNW,346,0.0,0.0,80,0.00,,,0.00,weatherlink.com 1.10,2013-07-01 04:06:00,
2013-06-30 23:21:00,59.3,53.0,29.95,NNW,346,0.0,0.0,79,0.00,,,0.00,weatherlink.com 1.10,2013-07-01 04:21:00,
2013-06-30 23:36:00,58.9,53.0,29.96,NNW,346,0.0,0.0,80,0.00,,,0.00,weatherlink.com 1.10,2013-07-01 04:36:00,
2013-06-30 23:51:00,58.6,53.0,29.96,NNW,346,0.0,0.0,82,0.00,,,0.00,weatherlink.com 1.10,2013-07-01 04:51:00,